Regional Weather Roundup
Issued by NWS

Home | Current Version | Previous Version | Text Only | Print | Product List | Glossary Off
Versions: 1 2 3 4 5 6 7 8 9 10 11 12 13 14 15 16 17 18 19 20 21 22 23 24 25 26 27 28 29 30 31 32 33 34 35 36 37 38 39 40 41 42 43 44 45 46 47 48 49 50

000
ASUS45 KCYS 211410
RWRWY

WYOMING REGIONAL WEATHER ROUNDUP
NATIONAL WEATHER SERVICE CHEYENNE WY
800 AM MDT WED JUN 21 2017

NOTE:  "FAIR" INDICATES FEW OR NO CLOUDS BELOW 12,000 FEET
WITH NO SIGNIFICANT WEATHER AND/OR OBSTRUCTIONS TO VISIBILITY.

WYZ001-211500-
YELLOWSTONE NATIONAL PARK

CITY           SKY/WX    TMP DP  RH WIND       PRES   REMARKS
LK YELLOWSTONE   N/A     47  44  90 E3        30.24S
W YELLOWSTONE  NOT AVBL

$$
WYZ002>013-054>058-071-098>099-211500-
NORTHERN WYOMING

CITY           SKY/WX    TMP DP  RH WIND       PRES   REMARKS
JACKSON        SUNNY     50  46  87 CALM      30.19R
CODY           FAIR      70  48  45 NW3       30.04R
GREYBULL       FAIR      68  49  50 CALM      29.93R
WORLAND        FAIR      68  50  52 W3        29.95R
SHERIDAN       FAIR      71  54  54 NW16      29.96R
BUFFALO        FAIR      73  50  44 N18G30    30.00R
GILLETTE       FAIR      72  55  55 W10       29.92R
HULETT         FAIR      72  52  49 SW6       29.92R
NEWCASTLE      FAIR      70  50  49 CALM      29.91R

$$
WYZ014>020-022>026-101>103-211500-
CENTRAL WYOMING

CITY           SKY/WX    TMP DP  RH WIND       PRES   REMARKS
BIG PINEY      FAIR      54  44  69 W5        30.23R
PINEDALE       FAIR      59  46  63 W3        30.23S
DUBOIS         FAIR      61  39  44 NW13      30.16S
LANDER         FAIR      65  53  65 CALM      30.04R
RIVERTON       FAIR      73  43  33 W9        30.05R
CASPER         FAIR      74  44  34 SW16      30.01R
DOUGLAS        FAIR      67  51  56 NW7       29.98R

$$
WYZ021-027>030-104>119-211500-
SOUTHERN WYOMING

CITY           SKY/WX    TMP DP  RH WIND       PRES   REMARKS
EVANSTON       FAIR      62  43  49 S7        30.25R
KEMMERER         N/A     63  43  48 N5        30.26R
FORT BRIDGER   FAIR      67  42  39 NW6       30.27R
ROCK SPRINGS   FAIR      66  39  37 CALM      30.21R
DIXON          FAIR      62  42  47 SE5       30.24S
RAWLINS        FAIR      70  39  32 W17G24    30.19R
SARATOGA       FAIR      66  41  39 S6        30.23R
LARAMIE        FAIR      74  38  27 W24       30.19S
CHEYENNE       FAIR      74  42  31 W18       30.10R
TORRINGTON     FAIR      73  50  44 N5        29.92R
PINE BLUFFS    FAIR      79  41  25 W18       30.01S

$$



USA.gov is the U.S. government's official web portal to all federal, state and local government web resources and services.